When you browse on this site, cookies collect data to enhance your experience and personalize the content and advertising you see.
Visit our Privacy Policy to learn more. By continuing to use the site, you agree to this use of cookies and data.
  • En España
  • Lista de países
  • Para 7 días
  • Temperatura del agua
  • Mapa Satelital
  • El tiempo en el mapa
  • Informadores
  • user-avatar
    Iniciar sesión

    Tiempo cada hora Sydney

    Hoy, 21 Abril, Domingo

    Tiempo Temperatura Precipitaciones Viento Presión Humedad
    00:00 +21°C° 0 mm 3 mps 767 mmHg 89%
    01:00 +21°C° 0 mm 2 mps 767 mmHg 90%
    02:00 +20°C° 0 mm 2 mps 767 mmHg 91%
    03:00 +20°C° 0 mm 2 mps 767 mmHg 92%
    04:00 +20°C° 0 mm 2 mps 767 mmHg 92%
    05:00 +20°C° 0 mm 2 mps 767 mmHg 92%
    06:00 +20°C° 0 mm 2 mps 767 mmHg 93%
    07:00 +20°C° 0 mm 2 mps 767 mmHg 93%
    08:00 +21°C° 0 mm 2 mps 767 mmHg 84%
    09:00 +24°C° 0 mm 3 mps 767 mmHg 75%
    10:00 +25°C° 0 mm 4 mps 767 mmHg 66%
    11:00 +26°C° 0 mm 4 mps 766 mmHg 61%
    12:00 +27°C° 0 mm 4 mps 766 mmHg 57%
    13:00 +28°C° 0 mm 4 mps 765 mmHg 52%
    14:00 +28°C° 0 mm 5 mps 765 mmHg 55%
    15:00 +27°C° 0 mm 5 mps 765 mmHg 58%
    16:00 +27°C° 0 mm 5 mps 765 mmHg 61%
    17:00 +26°C° 0 mm 5 mps 765 mmHg 67%
    18:00 +25°C° 0 mm 5 mps 765 mmHg 72%
    19:00 +23°C° 0 mm 5 mps 766 mmHg 78%
    20:00 +23°C° 0 mm 5 mps 766 mmHg 79%
    21:00 +22°C° 0 mm 5 mps 766 mmHg 80%
    22:00 +22°C° 0 mm 5 mps 766 mmHg 80%
    23:00 +22°C° 0 mm 5 mps 766 mmHg 81%

    Mañana, 22 Abril, Lunes

    Tiempo Temperatura Precipitaciones Viento Presión Humedad
    00:00 +21°C° 0 mm 4 mps 766 mmHg 83%
    01:00 +21°C° 0 mm 4 mps 765 mmHg 84%
    02:00 +21°C° 0 mm 4 mps 765 mmHg 84%
    03:00 +20°C° 0 mm 4 mps 765 mmHg 84%
    04:00 +20°C° 0 mm 3 mps 765 mmHg 84%
    05:00 +20°C° 0 mm 3 mps 765 mmHg 84%
    06:00 +20°C° 0 mm 3 mps 765 mmHg 83%
    07:00 +20°C° 0 mm 3 mps 766 mmHg 83%
    08:00 +21°C° 0 mm 3 mps 766 mmHg 76%
    09:00 +22°C° 0 mm 3 mps 766 mmHg 70%
    10:00 +24°C° 0 mm 3 mps 766 mmHg 64%
    11:00 +25°C° 0 mm 3 mps 766 mmHg 59%
    12:00 +27°C° 0 mm 3 mps 766 mmHg 55%
    13:00 +28°C° 0 mm 3 mps 765 mmHg 50%
    14:00 +27°C° 0 mm 4 mps 765 mmHg 52%
    15:00 +27°C° 0 mm 4 mps 765 mmHg 54%
    16:00 +27°C° 0 mm 4 mps 765 mmHg 55%
    17:00 +26°C° 0 mm 4 mps 766 mmHg 63%
    18:00 +25°C° 0 mm 4 mps 766 mmHg 70%
    19:00 +22°C° 0 mm 4 mps 767 mmHg 78%
    20:00 +22°C° 0 mm 3 mps 767 mmHg 81%
    21:00 +23°C° 0 mm 2 mps 768 mmHg 84%
    22:00 +21°C° 0 mm 2 mps 768 mmHg 87%
    23:00 +22°C° 0.2 mm 1 mps 768 mmHg 88%

    Pasado mañana, 23 Abril, Martes

    Tiempo Temperatura Precipitaciones Viento Presión Humedad
    00:00 +22°C° 0.2 mm 1 mps 768 mmHg 89%
    01:00 +21°C° 0.2 mm 1 mps 768 mmHg 90%
    02:00 +21°C° 0.1 mm 1 mps 768 mmHg 90%
    03:00 +21°C° 0.1 mm 1 mps 767 mmHg 91%
    04:00 +20°C° 0.1 mm 2 mps 767 mmHg 92%
    05:00 +20°C° 0.1 mm 2 mps 768 mmHg 92%
    06:00 +20°C° 0.1 mm 2 mps 768 mmHg 92%
    07:00 +20°C° 0.1 mm 2 mps 769 mmHg 92%
    08:00 +21°C° 0.2 mm 3 mps 769 mmHg 85%
    09:00 +24°C° 0.2 mm 3 mps 769 mmHg 78%
    10:00 +25°C° 0.2 mm 3 mps 769 mmHg 71%
    11:00 +26°C° 0 mm 3 mps 769 mmHg 66%
    12:00 +26°C° 0 mm 3 mps 768 mmHg 62%
    13:00 +27°C° 0 mm 3 mps 768 mmHg 58%
    14:00 +27°C° 0 mm 4 mps 768 mmHg 60%
    15:00 +26°C° 0 mm 4 mps 768 mmHg 62%
    16:00 +25°C° 0 mm 4 mps 768 mmHg 65%
    17:00 +25°C° 0 mm 3 mps 768 mmHg 70%
    18:00 +24°C° 0 mm 3 mps 768 mmHg 75%
    19:00 +22°C° 0 mm 3 mps 769 mmHg 81%
    20:00 +21°C° 0.1 mm 2 mps 769 mmHg 83%
    21:00 +21°C° 0.1 mm 2 mps 769 mmHg 84%
    22:00 +21°C° 0.1 mm 1 mps 769 mmHg 86%
    23:00 +21°C° 0 mm 1 mps 769 mmHg 88%

    24 Abril, Miércoles

    Tiempo Temperatura Precipitaciones Viento Presión Humedad
    00:00 +21°C° 0 mm 1 mps 769 mmHg 89%
    01:00 +20°C° 0 mm 1 mps 768 mmHg 91%
    02:00 +20°C° 0 mm 1 mps 768 mmHg 92%
    03:00 +19°C° 0 mm 2 mps 768 mmHg 92%
    04:00 +19°C° 0 mm 2 mps 767 mmHg 93%
    05:00 +19°C° 0 mm 2 mps 768 mmHg 93%
    06:00 +20°C° 0 mm 1 mps 768 mmHg 92%
    07:00 +19°C° 0 mm 1 mps 768 mmHg 92%
    08:00 +21°C° 0 mm 1 mps 768 mmHg 83%
    09:00 +23°C° 0 mm 1 mps 768 mmHg 74%
    10:00 +25°C° 0 mm 1 mps 768 mmHg 65%
    11:00 +26°C° 0 mm 1 mps 768 mmHg 61%
    12:00 +27°C° 0 mm 1 mps 767 mmHg 56%
    13:00 +28°C° 0 mm 2 mps 766 mmHg 52%
    14:00 +27°C° 0 mm 3 mps 766 mmHg 54%
    15:00 +27°C° 0 mm 3 mps 765 mmHg 55%
    16:00 +27°C° 0 mm 4 mps 765 mmHg 57%
    17:00 +25°C° 0 mm 4 mps 765 mmHg 65%
    18:00 +23°C° 0 mm 5 mps 765 mmHg 72%
    19:00 +22°C° 0 mm 5 mps 766 mmHg 80%
    20:00 +22°C° 0.2 mm 4 mps 766 mmHg 81%
    21:00 +21°C° 0.2 mm 4 mps 766 mmHg 83%
    22:00 +21°C° 0.2 mm 4 mps 766 mmHg 85%
    23:00 +20°C° 0.1 mm 3 mps 765 mmHg 85%

    25 Abril, Jueves

    Tiempo Temperatura Precipitaciones Viento Presión Humedad
    00:00 +20°C° 0.1 mm 3 mps 765 mmHg 86%
    01:00 +19°C° 0.1 mm 3 mps 764 mmHg 87%
    02:00 +19°C° 0 mm 2 mps 764 mmHg 85%
    03:00 +19°C° 0 mm 2 mps 764 mmHg 83%
    04:00 +19°C° 0 mm 2 mps 764 mmHg 82%
    05:00 +19°C° 0 mm 3 mps 764 mmHg 79%
    06:00 +19°C° 0 mm 3 mps 765 mmHg 76%
    07:00 +19°C° 0 mm 4 mps 765 mmHg 74%
    08:00 +21°C° 0 mm 4 mps 765 mmHg 70%
    09:00 +22°C° 0 mm 4 mps 766 mmHg 66%
    10:00 +25°C° 0 mm 5 mps 766 mmHg 62%
    11:00 +25°C° 0 mm 5 mps 765 mmHg 60%
    12:00 +26°C° 0 mm 5 mps 765 mmHg 58%
    13:00 +26°C° 0 mm 4 mps 765 mmHg 56%
    14:00 +25°C° 0 mm 4 mps 764 mmHg 59%
    15:00 +23°C° 0 mm 4 mps 764 mmHg 62%
    16:00 +23°C° 0 mm 4 mps 764 mmHg 65%
    17:00 +22°C° 0 mm 4 mps 765 mmHg 68%
    18:00 +21°C° 0 mm 3 mps 765 mmHg 71%
    19:00 +20°C° 0 mm 2 mps 766 mmHg 74%
    20:00 +20°C° 0 mm 2 mps 766 mmHg 75%
    21:00 +21°C° 0 mm 1 mps 766 mmHg 77%
    22:00 +19°C° 0 mm 0 mps 766 mmHg 78%
    23:00 +20°C° 0 mm 1 mps 766 mmHg 82%

    26 Abril, Viernes

    Tiempo Temperatura Precipitaciones Viento Presión Humedad
    00:00 +20°C° 0 mm 1 mps 766 mmHg 85%
    01:00 +20°C° 0 mm 1 mps 765 mmHg 88%
    02:00 +18°C° 0 mm 2 mps 765 mmHg 87%
    03:00 +18°C° 0 mm 2 mps 765 mmHg 87%
    04:00 +18°C° 0 mm 3 mps 765 mmHg 86%
    05:00 +17°C° 0 mm 3 mps 765 mmHg 80%
    06:00 +17°C° 0 mm 3 mps 765 mmHg 74%
    07:00 +16°C° 0 mm 3 mps 766 mmHg 68%
    08:00 +18°C° 0 mm 3 mps 766 mmHg 58%
    09:00 +20°C° 0 mm 3 mps 765 mmHg 47%
    10:00 +22°C° 0 mm 3 mps 765 mmHg 37%
    11:00 +24°C° 0 mm 3 mps 765 mmHg 33%
    12:00 +25°C° 0 mm 3 mps 764 mmHg 29%
    13:00 +27°C° 0 mm 2 mps 764 mmHg 25%
    14:00 +26°C° 0 mm 3 mps 764 mmHg 30%
    15:00 +26°C° 0 mm 4 mps 764 mmHg 35%
    16:00 +25°C° 0 mm 4 mps 764 mmHg 39%
    17:00 +23°C° 0 mm 4 mps 764 mmHg 51%
    18:00 +21°C° 0 mm 4 mps 765 mmHg 62%
    19:00 +20°C° 0 mm 4 mps 766 mmHg 73%
    20:00 +20°C° 0 mm 3 mps 766 mmHg 75%
    21:00 +19°C° 0 mm 3 mps 766 mmHg 77%
    22:00 +19°C° 0 mm 2 mps 767 mmHg 79%
    23:00 +18°C° 0 mm 2 mps 767 mmHg 80%
    Mostrar más